User: anonymous   Login
Location: Unspecified
(0.0000°N, 0.0000°E)
Time: 22:49:04
(UTC+02:00)
Language:

Cosmos 1892 Rocket - Orbit

View from above orbital plane
View from above orbital plane
View from above satellite
View from above satellite

Ground track
Ground track

The orbit data is extracted from the following two-line orbital elements,

1 18422U 87088B   16182.93272203 +.00000081 +00000-0 +69476-5 0  9990
2 18422 082.5119 146.0002 0020317 151.9980 260.6233 14.82869071528670
Epoch (UTC): 30 June 2016 22:23:07
Eccentricity: 0.0020317
inclination: 82.5119°
perigee height: 606 km
apogee height: 634 km
right ascension of ascending node: 146.0002°
argument of perigee: 151.9980°
revolutions per day: 14.82869071
mean anomaly at epoch: 260.6233°
orbit number at epoch: 52867

The dashed part of the orbit path shows where the satellite is in the earth's shadow,  

DLR